Location: Lamoine Observatory
(44.4551°N, 68.3470°W)
Time: 16:00:17
(UTC-05:00)

Daily predictions for brighter satellites

Satellite Brightness Start Highest point End
(mag) Time Altitude Azimuth Time Altitude Azimuth Time Altitude Azimuth
IRAS Rocket 4.3 16:49:20 10° SSE 16:54:48 66° ENE 17:00:21 10° N
CSL-04 Rocket 3.8 16:50:25 10° SSE 16:55:59 87° ENE 17:01:31 10° NNW
NOSS 3-3 (A) 4.1 16:50:28 10° SSW 16:56:32 83° SE 17:03:15 10° NE
NOSS 3-3 (C) 4.1 16:50:34 10° SSW 16:56:38 83° SE 17:03:22 10° NE
Cosmos 1943 Rocket 2.2 16:52:20 10° NNW 16:57:57 70° ENE 17:03:28 10° SSE
SeaSat 1 3.3 16:54:21 10° SSE 16:59:12 58° WSW 17:04:05 10° NW
Cosmos 1300 3.4 16:56:02 10° N 16:59:33 33° ENE 17:03:02 10° SE
Meteor 2-14 Rocket 4.4 16:54:45 10° N 17:00:51 66° E 17:06:53 10° SSE
Cosmos 1295 Rocket 4.4 16:58:35 10° N 17:04:43 73° E 17:10:50 10° SSE
COSMO-SKYMED 1 3.4 17:01:51 10° NNE 17:05:44 31° E 17:09:34 10° SSE
ERS-2 3.6 17:05:56 10° ESE 17:08:27 18° ENE 17:10:59 10° NNE
SL-14 R/B 3.8 17:04:46 10° SSE 17:08:28 38° E 17:12:09 10° NNE
SL-24 R/B - RUBIN 2 4.0 17:07:52 10° NNW 17:12:14 39° NE 17:16:19 10° ESE
Cosmos 1484 Rocket 3.7 17:09:06 10° S 17:12:48 52° W 17:16:30 10° NNW
CZ-4 R/B 1.5 17:10:44 10° SSE 17:14:58 87° ENE 17:19:14 10° NNW
Cosmos 1076 Rocket 3.7 17:11:12 10° S 17:15:27 52° E 17:19:42 10° NNE
USA 116 4.0 17:15:21 10° NNE 17:19:35 72° ESE 17:24:20 10° S
FENGYUN 3A 3.8 17:16:57 10° SE 17:22:05 49° ENE 17:27:15 10° N
ALOS 2.4 17:19:15 10° SE 17:23:44 49° ENE 17:28:14 10° N
TSX-5 4.3 17:21:31 10° S 17:24:18 29° ESE 17:26:29 15° ENE
Cosmos 2366 rocket 4.0 17:20:35 10° N 17:26:45 57° ENE 17:32:49 10° SSE
Meteor 1-28 Rocket 4.0 17:24:49 10° N 17:28:33 54° WNW 17:32:15 10° SSW
Cosmos 1328 Rocket 4.4 17:26:14 10° NNE 17:30:00 28° ENE 17:33:44 10° SE
MONITOR-E 4.2 17:29:25 10° SSE 17:32:23 52° ENE 17:35:23 10° N
ATLAS 5 CENTAUR R/B 4.3 17:31:41 10° NNW 17:32:24 10° N 17:33:07 10° N
Ariane Rocket 4.0 17:28:24 10° S 17:33:19 52° W 17:38:17 10° NNW
Cosmos 1346 Rocket 3.4 17:31:19 10° N 17:34:51 31° ENE 17:38:21 10° SE
Cosmos 1315 Rocket 2.9 17:31:54 10° S 17:35:44 53° E 17:39:33 10° NNE
Cosmos 1726 3.4 17:33:09 10° NNW 17:36:40 43° W 17:40:09 10° SSW
METEOR-M 4.3 17:32:47 10° S 17:38:08 78° WSW 17:43:32 10° NNW
USA 215 4.4 17:33:10 12° NE 17:38:21 31° N 17:43:54 10° WNW
COSMOS 2406 4.2 17:34:23 10° SSE 17:38:56 25° ESE 17:41:32 18° ENE
Cosmos 1766 Rocket 3.5 17:40:47 10° S 17:45:02 61° E 17:49:19 10° NNE
H-2A R/B 3.3 17:43:19 10° SE 17:46:48 35° ENE 17:50:20 10° N
SPOT 3 Rocket 3.4 17:43:56 10° SSE 17:49:02 70° ENE 17:54:11 10° N
Okean 3 Rocket 4.1 17:45:02 10° SSW 17:49:32 65° W 17:54:03 10° N
Cosmos 1943 4.3 17:47:25 10° SW 17:52:45 43° WNW 17:58:07 10° NNE
SKYMED 2 3.6 17:49:33 10° N 17:53:56 82° WNW 17:58:16 10° SSW
Cosmos 1777 Rocket 3.9 17:50:13 10° NNW 17:55:29 73° ENE 18:00:43 10° SSE
Cosmos 1455 2.7 17:54:13 10° N 17:57:48 35° ENE 17:59:05 27° ESE
USA 81 4.5 17:56:03 10° SSE 18:00:51 37° E 18:05:41 10° NNE
Tiangong 1 1.4 17:59:25 10° W 18:01:46 39° SSW 18:02:01 37° S
Cosmos 1328 3.9 17:58:54 10° SSW 18:02:55 76° W 18:06:58 10° N
YAOGAN 1 4.0 17:59:09 10° SSW 18:03:13 40° W 18:07:19 10° NNW
Cosmos 371 Rocket 4.1 18:01:33 10° SSE 18:05:31 29° ESE 18:05:31 29° ESE
ERBS 4.1 18:03:18 10° NNW 18:05:13 19° N 18:05:13 19° N
Cosmos 1151 Rocket 3.3 18:04:06 10° N 18:08:18 43° ENE 18:12:29 10° SSE
Cosmos 44 2.9 18:04:48 10° SSW 18:09:06 82° SE 18:11:09 32° NE
Meteor 2-2 Rocket 4.4 18:03:25 10° NNW 18:09:11 77° W 18:14:49 10° S
EO 1 Del DPAF 3.3 18:08:22 12° N 18:11:53 80° WNW 18:15:43 10° SSW
GEOS 3 Rocket 3.6 18:18:17 28° ESE 18:21:02 64° NE 18:26:24 10° NNW
Cosmos 1626 2.7 18:20:19 10° SSW 18:23:58 57° W 18:26:49 16° N
Cosmos 2098 Rocket 3.7 18:19:37 10° N 18:24:45 87° W 18:31:11 10° S
Cosmos 1703 3.2 18:24:27 10° S 18:28:25 84° W 18:29:54 37° N
Cosmos 2239 Rocket 4.4 18:22:40 10° N 18:28:44 58° ENE 18:34:46 10° SSE
Cosmos 2058 2.7 18:27:00 10° S 18:31:10 81° E 18:31:53 60° NNE
Cosmos 1515 Rocket 3.4 18:30:47 10° N 18:35:09 87° W 18:39:29 10° S
Cosmos 44 Rocket 3.4 18:34:16 10° SW 18:38:56 69° NW 18:40:13 46° NNE
NOSS 3-4 (A) 4.3 18:32:21 10° NW 18:39:18 62° WSW 18:46:44 10° SSE
NOSS 3-4 (C) 4.3 18:32:27 10° NW 18:39:24 63° WSW 18:46:51 10° SSE
ERS-2 3.8 18:38:28 10° SSW 18:41:51 35° W 18:45:17 10° NNW
Cosmos 2151 3.0 18:40:26 10° SSW 18:44:41 77° W 18:45:09 67° NNW
Envisat 3.8 18:48:34 36° N 18:48:34 36° N 18:51:40 10° N
Cosmos 1570 Rocket 4.3 18:42:24 10° S 18:46:42 52° SSE 18:46:42 52° SSE
Cosmos 1500 Rocket 3.6 18:45:09 10° S 18:49:28 80° WSW 18:49:28 80° WSW
Cosmos 2228 Rocket 3.9 18:48:39 10° NNW 18:53:07 53° W 18:57:34 10° S
Lacrosse 5 4.3 18:53:45 10° S 18:53:52 11° S 18:53:52 11° S
Meteor 2-15 4.3 18:52:20 10° S 18:58:28 87° W 19:04:34 10° N
Cosmos 332 Rocket 3.9 18:55:02 10° SSW 18:59:46 76° W 18:59:46 76° W
Cosmos 1980 Rocket 4.4 18:58:31 10° N 18:59:07 12° N 18:59:07 12° N
Thor Agena Rocket 3.6 19:07:19 74° NW 19:07:35 76° WNW 19:12:47 10° SSW
Cosmos 909 Rocket 4.4 19:09:02 10° NW 19:15:44 62° WSW 19:18:03 38° S
Cosmos 1821 Rocket 4.4 19:12:23 10° NNW 19:18:26 60° W 19:24:31 10° S
ATLAS 5 CENTAUR R/B 4.5 19:16:35 10° NNW 19:17:32 12° N 19:17:32 12° N
USA 215 4.2 19:20:30 33° N 19:20:30 33° N 19:25:57 10° NW
COSMOS 2406 3.8 19:17:18 10° SW 19:22:53 52° WNW 19:23:40 49° NNW
